Change the Weather History Date:

Monday, May 5, 2014

  Actual Average Record
Temperature  
Mean Temperature 76 °F -  
Max Temperature 91 °F 77 °F 93 °F (2003)
Min Temperature 61 °F 58 °F 42 °F (2013)
Cooling Degree Days 11    
Growing Degree Days 26 (Base 50)    
Moisture  
Dew Point 52 °F    
Average Humidity 48    
Maximum Humidity 65    
Minimum Humidity 33    
Precipitation  
Precipitation 0.00 in - - ()
Sea Level Pressure  
Sea Level Pressure 29.82 in    
Wind  
Wind Speed 7 mph (SSE)    
Max Wind Speed 17 mph    
Max Gust Speed 23 mph    
Visibility 10 miles    
Events      
Averages and records for this station are not official NWS values.
T = Trace of Precipitation, MM = Missing Value Source: NWS Daily Summary

Daily Weather History Graph

Daily Weather History Graph

Search for Another Location

Airport or City:

Trip Planner

Search our weather history database for the weather conditions in past years. The results will help you decide how hot, cold, wet, or windy it might be!

Date:

Astronomy

May. 05, 2014 Rise Set
Actual Time 6:34 AM CDT 8:15 PM CDT
Civil Twilight 6:07 AM CDT 8:42 PM CDT
Nautical Twilight 5:34 AM CDT 9:15 PM CDT
Astronomical Twilight 5:00 AM CDT 9:49 PM CDT
Moon 11:54 AM CDT (5/5) 1:00 AM CDT (5/5)
Length of Visible Light 14h 35m
Length of Day
13h 41m
Waxing Crescent, 37% of the Moon is Illuminated
May 5
Waxing Crescent
May 6
First Quarter
May 14
Full
May 21
Last Quarter
May 28
New

Hourly Weather History & Observations

Time (CDT) Temp. Heat Index Dew Point Humidity Pressure Visibility Wind Dir Wind Speed Gust Speed Precip Events Conditions
12:15 AM 72.5 °F - 46.4 °F 39% 29.87 in 10.0 mi SSE 6.9 mph - N/A   Clear
12:35 AM 71.4 °F - 47.3 °F 42% 29.86 in 10.0 mi SSE 6.9 mph - N/A   Clear
12:55 AM 70.7 °F - 47.7 °F 44% 29.86 in 10.0 mi SSE 6.9 mph - N/A   Clear
1:15 AM 70.3 °F - 48.0 °F 45% 29.86 in 10.0 mi SSE 5.8 mph - N/A   Clear
1:35 AM 69.1 °F - 48.4 °F 48% 29.86 in 10.0 mi SSE 5.8 mph - N/A   Clear
1:55 AM 68.0 °F - 48.6 °F 50% 29.85 in 10.0 mi SSE 4.6 mph - N/A   Clear
2:15 AM 67.5 °F - 48.6 °F 51% 29.86 in 10.0 mi Calm Calm - N/A   Clear
2:35 AM 66.6 °F - 48.7 °F 53% 29.85 in 10.0 mi SE 3.5 mph - N/A   Clear
2:55 AM 65.7 °F - 48.6 °F 54% 29.86 in 10.0 mi South 4.6 mph - N/A   Clear
3:15 AM 66.6 °F - 48.4 °F 52% 29.85 in 10.0 mi SSE 5.8 mph - N/A   Clear
3:35 AM 66.7 °F - 48.0 °F 51% 29.85 in 10.0 mi SSE 4.6 mph - N/A   Clear
3:55 AM 65.8 °F - 47.5 °F 52% 29.85 in 10.0 mi South 3.5 mph - N/A   Clear
4:15 AM 67.3 °F - 46.6 °F 47% 29.85 in 10.0 mi South 3.5 mph - N/A   Clear
4:35 AM 65.7 °F - 46.6 °F 50% 29.86 in 10.0 mi South 3.5 mph - N/A   Clear
4:55 AM 65.3 °F - 46.4 °F 50% 29.86 in 10.0 mi South 4.6 mph - N/A   Clear
5:15 AM 65.3 °F - 46.2 °F 50% 29.85 in 10.0 mi South 5.8 mph - N/A   Clear
5:35 AM 64.4 °F - 46.2 °F 52% 29.85 in 10.0 mi SSE 5.8 mph - N/A   Clear
5:55 AM 63.5 °F - 46.2 °F 53% 29.85 in 10.0 mi SSE 3.5 mph - N/A   Clear
6:15 AM 62.4 °F - 46.4 °F 56% 29.86 in 10.0 mi SE 4.6 mph - N/A   Clear
6:35 AM 61.0 °F - 46.6 °F 59% 29.87 in 10.0 mi SSE 4.6 mph - N/A   Clear
6:55 AM 62.6 °F - 46.4 °F 55% 29.87 in 10.0 mi SSE 6.9 mph - N/A   Clear
7:55 AM 64.4 °F - 50.0 °F 59% 29.88 in 10.0 mi SE 4.6 mph - N/A   Clear
8:55 AM 69.8 °F - 50.0 °F 49% 29.87 in 10.0 mi South 6.9 mph - N/A   Clear
9:55 AM 73.4 °F - 51.8 °F 47% 29.87 in 10.0 mi South 11.5 mph 17.3 mph N/A   Clear
10:55 AM 78.8 °F - 53.6 °F 42% 29.85 in 10.0 mi South 12.7 mph 17.3 mph N/A   Clear
11:55 AM 82.4 °F 81.4 °F 53.6 °F 37% 29.84 in 10.0 mi South 11.5 mph 18.4 mph N/A   Clear
12:55 PM 86.0 °F 84.5 °F 55.4 °F 35% 29.81 in 10.0 mi SSW 13.8 mph 21.9 mph N/A   Clear
1:55 PM 89.6 °F 88.1 °F 57.2 °F 33% 29.78 in 10.0 mi South 16.1 mph 19.6 mph N/A   Clear
2:55 PM 91.4 °F 90.7 °F 59.0 °F 34% 29.76 in 10.0 mi SSE 13.8 mph 21.9 mph N/A   Clear
3:55 PM 91.4 °F 90.7 °F 59.0 °F 34% 29.74 in 10.0 mi SSE 17.3 mph 23.0 mph N/A   Clear
4:55 PM 91.4 °F 90.7 °F 59.0 °F 34% 29.72 in 10.0 mi South 15.0 mph 23.0 mph N/A   Clear
5:55 PM 89.6 °F 88.1 °F 57.2 °F 33% 29.72 in 10.0 mi South 15.0 mph 23.0 mph N/A   Clear
6:55 PM 87.8 °F 87.1 °F 59.0 °F 38% 29.71 in 10.0 mi SE 12.7 mph 21.9 mph N/A   Clear
7:55 PM 82.4 °F 82.5 °F 59.0 °F 45% 29.72 in 10.0 mi SSE 11.5 mph - N/A   Clear
8:55 PM 78.8 °F - 57.2 °F 47% 29.73 in 10.0 mi SE 9.2 mph - N/A   Clear
9:55 PM 75.2 °F - 59.0 °F 57% 29.74 in 10.0 mi SE 9.2 mph - N/A   Clear
10:15 PM 74.3 °F - 59.9 °F 61% 29.74 in 10.0 mi ESE 5.8 mph - N/A   Clear
10:35 PM 72.5 °F - 60.1 °F 65% 29.75 in 10.0 mi SE 6.9 mph - N/A   Clear
10:55 PM 72.5 °F - 59.9 °F 64% 29.75 in 5.0 mi SE 5.8 mph - N/A   Haze
11:15 PM 71.8 °F - 59.4 °F 65% 29.75 in 7.0 mi SE 5.8 mph - N/A   Clear